,,Stat6,,Stat2,,Stat8,,Stat9,,Stat10,,Wind1,,Wind1,
time,status,PA1M_AVG,status,PR1M_SUM,status,RH1M_AVG,status,SR1M_AVG,status,TA1M_AVG,status,W1dAve1m,status,W1sAve1m,
2005-05-02, 00:00:01,VALID,916.741,VALID,0,VALID,100,VALID,-0.0339617,VALID,20.9772,VALID,65,VALID,1.15243,
2005-05-02, 00:01:00,VALID,916.727,VALID,0,VALID,100,VALID,-0.0339617,VALID,20.9637,VALID,99,VALID,1.10065,
2005-05-02, 00:02:00,VALID,916.725,VALID,0,VALID,100,VALID,-0.0169808,VALID,20.9605,VALID,103,VALID,0.9109,
2005-05-02, 00:03:00,VALID,916.73,VALID,0,VALID,100,VALID,-0.0169808,VALID,20.9503,VALID,83,VALID,1.04764,
2005-05-02, 00:04:00,VALID,916.746,VALID,0,VALID,100,VALID,-0.0339617,VALID,20.9573,VALID,60,VALID,0.944931,
2005-05-02, 00:05:00,VALID,916.771,VALID,0,VALID,100,VALID,-0.0339617,VALID,20.9608,VALID,50,VALID,0.56808,
2005-05-02, 00:06:00,VALID,916.797,VALID,0,VALID,100,VALID,-0.0169808,VALID,20.9637,VALID,105,VALID,0.63899,
2005-05-02, 00:07:00,VALID,916.824,VALID,0,VALID,100,VALID,-0.0509425,VALID,20.9573,VALID,90,VALID,0.683689,
2005-05-02, 00:08:00,VALID,916.835,VALID,0,VALID,100,VALID,0,VALID,20.9376,VALID,128,VALID,0.927379,
2005-05-02, 00:09:01,VALID,916.867,VALID,0,VALID,100,VALID,-0.0339617,VALID,20.9411,VALID,100,VALID,0.633903,
2005-05-02, 00:10:00,VALID,916.893,VALID,0,VALID,100,VALID,0,VALID,20.9314,VALID,131,VALID,0.667878,
2005-05-02, 00:11:00,VALID,916.888,VALID,0,VALID,100,VALID,-0.0339617,VALID,20.9355,VALID,169,VALID,0.94707,
2005-05-02, 00:12:00,VALID,916.904,VALID,0,VALID,100,VALID,-0.0169808,VALID,20.922,VALID,172,VALID,0.534896,
2005-05-02, 00:13:00,VALID,916.88,VALID,0,VALID,100,VALID,-0.0169808,VALID,20.915,VALID,148,VALID,0.619191,
2005-05-02, 00:14:00,VALID,916.883,VALID,0,VALID,100,VALID,-0.0339617,VALID,20.9153,VALID,186,VALID,0.575347,
2005-05-02, 00:15:00,VALID,916.898,VALID,0,VALID,100,VALID,0,VALID,20.9026,VALID,139,VALID,0.59468,
2005-05-02, 00:16:00,VALID,916.859,VALID,0,VALID,100,VALID,-0.0169808,VALID,20.897,VALID,160,VALID,0.384411,
2005-05-02, 00:17:00,VALID,916.834,VALID,0,VALID,100,VALID,-0.0339617,VALID,20.883,VALID,165,VALID,0.428486,
2005-05-02, 00:18:00,VALID,916.83,VALID,0,VALID,100,VALID,-0.0169808,VALID,20.9021,VALID,143,VALID,0.462536,
2005-05-02, 00:19:00,VALID,916.857,VALID,0,VALID,100,VALID,0,VALID,20.9247,VALID,142,VALID,0.463728,
2005-05-02, 00:20:01,VALID,916.857,VALID,0,VALID,100,VALID,-0.0169808,VALID,20.9344,VALID,68,VALID,0.632622,
2005-05-02, 00:21:00,VALID,916.835,VALID,0,VALID,100,VALID,0,VALID,20.9382,VALID,52,VALID,0.173118,
2005-05-02, 00:22:00,VALID,916.816,VALID,0,VALID,100,VALID,-0.0339617,VALID,20.9446,VALID,121,VALID,0.539453,
2005-05-02, 00:23:00,VALID,916.819,VALID,0,VALID,100,VALID,0,VALID,20.9441,VALID,178,VALID,0.298077,
2005-05-02, 00:24:01,VALID,916.802,VALID,0,VALID,100,VALID,0,VALID,20.9347,VALID,173,VALID,0.472842,
2005-05-02, 00:25:00,VALID,916.798,VALID,0,VALID,100,VALID,0,VALID,20.9349,VALID,167,VALID,0.553544,
2005-05-02, 00:26:00,VALID,916.795,VALID,0,VALID,100,VALID,-0.0169808,VALID,20.9314,VALID,152,VALID,0.593023,
2005-05-02, 00:27:00,VALID,916.777,VALID,0,VALID,100,VALID,-0.0169808,VALID,20.9252,VALID,145,VALID,0.901989,
2005-05-02, 00:28:00,VALID,916.757,VALID,0,VALID,100,VALID,0,VALID,20.9148,VALID,135,VALID,1.06925,
2005-05-02, 00:29:00,VALID,916.713,VALID,0,VALID,100,VALID,-0.0169808,VALID,20.9185,VALID,118,VALID,0.519259,
2005-05-02, 00:30:00,VALID,916.673,VALID,0,VALID,100,VALID,0,VALID,20.9153,VALID,111,VALID,0.627544,
2005-05-02, 00:31:00,VALID,916.646,VALID,0,VALID,100,VALID,0,VALID,20.9255,VALID,113,VALID,0.439317,
2005-05-02, 00:32:00,VALID,916.62,VALID,0,VALID,100,VALID,0,VALID,20.9185,VALID,113,VALID,0.501272,
2005-05-02, 00:33:01,VALID,916.602,VALID,0,VALID,100,VALID,-0.0509425,VALID,20.9121,VALID,113,VALID,0.410792,
2005-05-02, 00:34:00,VALID,916.564,VALID,0,VALID,100,VALID,-0.0169808,VALID,20.908,VALID,113,VALID,0.35411,
2005-05-02, 00:35:01,VALID,916.547,VALID,0,VALID,100,VALID,0,VALID,20.915,VALID,113,VALID,0.329215,
2005-05-02, 00:36:01,VALID,916.52,VALID,0,VALID,100,VALID,-0.0169808,VALID,20.9217,VALID,113,VALID,0.0979288,
2005-05-02, 00:37:00,VALID,916.517,VALID,0,VALID,100,VALID,0.0169808,VALID,20.9018,VALID,113,VALID,0.246094,
2005-05-02, 00:38:01,VALID,916.498,VALID,0,VALID,100,VALID,-0.0169808,VALID,20.9053,VALID,119,VALID,0.232195,
2005-05-02, 00:39:00,VALID,916.485,VALID,0,VALID,100,VALID,-0.0169808,VALID,20.8927,VALID,172,VALID,0.781822,
2005-05-02, 00:40:00,VALID,916.478,VALID,0,VALID,100,VALID,0,VALID,20.883,VALID,170,VALID,0.571801,
2005-05-02, 00:41:01,VALID,916.468,VALID,0,VALID,100,VALID,0,VALID,20.876,VALID,158,VALID,0.723474,
2005-05-02, 00:42:01,VALID,916.474,VALID,0,VALID,100,VALID,0,VALID,20.8894,VALID,157,VALID,0.762074,
2005-05-02, 00:43:01,VALID,916.466,VALID,0,VALID,100,VALID,0,VALID,20.8827,VALID,157,VALID,0.377418,
2005-05-02, 00:44:00,VALID,916.458,VALID,0,VALID,100,VALID,-0.0509425,VALID,20.8763,VALID,136,VALID,0.665153,
2005-05-02, 00:45:01,VALID,916.471,VALID,0,VALID,100,VALID,-0.0169808,VALID,20.8956,VALID,157,VALID,0.618676,
2005-05-02, 00:46:00,VALID,916.494,VALID,0,VALID,100,VALID,0,VALID,20.9155,VALID,164,VALID,0.694568,
2005-05-02, 00:47:00,VALID,916.497,VALID,0,VALID,100,VALID,0,VALID,20.9217,VALID,150,VALID,0.736793,
2005-05-02, 00:48:00,VALID,916.482,VALID,0,VALID,100,VALID,0,VALID,20.9142,VALID,155,VALID,0.86109,
2005-05-02, 00:49:00,VALID,916.472,VALID,0,VALID,100,VALID,-0.0339617,VALID,20.9347,VALID,161,VALID,0.333507,
2005-05-02, 00:50:00,VALID,916.474,VALID,0,VALID,100,VALID,0,VALID,20.9341,VALID,161,VALID,0.44407,
2005-05-02, 00:51:01,VALID,916.465,VALID,0,VALID,100,VALID,0.0169808,VALID,20.9148,VALID,156,VALID,0.605097,
2005-05-02, 00:52:01,VALID,916.456,VALID,0,VALID,100,VALID,0.0169808,VALID,20.9011,VALID,162,VALID,0.532552,
2005-05-02, 00:53:01,VALID,916.442,VALID,0,VALID,100,VALID,0.0509425,VALID,20.9021,VALID,170,VALID,0.38956,
2005-05-02, 00:54:00,VALID,916.429,VALID,0,VALID,100,VALID,0.0169808,VALID,20.8749,VALID,171,VALID,0.0152778,
2005-05-02, 00:55:00,VALID,916.421,VALID,0,VALID,100,VALID,0.0169808,VALID,20.8728,VALID,156,VALID,0.494368,
2005-05-02, 00:56:01,VALID,916.406,VALID,0,VALID,100,VALID,0.0509425,VALID,20.8628,VALID,157,VALID,0.402083,
2005-05-02, 00:57:00,VALID,916.377,VALID,0,VALID,100,VALID,0.0509425,VALID,20.8531,VALID,181,VALID,0.545015,
2005-05-02, 00:58:00,VALID,916.371,VALID,0,VALID,100,VALID,0,VALID,20.8666,VALID,169,VALID,0.554865,
2005-05-02, 00:59:01,VALID,916.361,VALID,0,VALID,100,VALID,0,VALID,20.8494,VALID,147,VALID,0.342416,
2005-05-02, 01:00:00,VALID,916.364,VALID,0,VALID,100,VALID,0.0169808,VALID,20.83,VALID,145,VALID,0.792468,
2005-05-02, 01:01:00,VALID,916.359,VALID,0,VALID,100,VALID,0,VALID,20.844,VALID,118,VALID,0.336372,
2005-05-02, 01:02:00,VALID,916.346,VALID,0,VALID,100,VALID,0.0169808,VALID,20.8668,VALID,98,VALID,0,
2005-05-02, 01:03:00,VALID,916.321,VALID,0,VALID,100,VALID,0.0169808,VALID,20.8698,VALID,98,VALID,0.117746,
2005-05-02, 01:04:00,VALID,916.335,VALID,0,VALID,100,VALID,0.0169808,VALID,20.8819,VALID,98,VALID,0.182546,
2005-05-02, 01:05:00,VALID,916.334,VALID,0,VALID,100,VALID,0.0339617,VALID,20.8989,VALID,98,VALID,0.070503,
2005-05-02, 01:06:00,VALID,916.298,VALID,0,VALID,100,VALID,-0.0849042,VALID,20.9101,VALID,98,VALID,0,
2005-05-02, 01:07:01,VALID,916.269,VALID,0,VALID,100,VALID,-0.101885,VALID,20.894,VALID,98,VALID,0.231836,
2005-05-02, 01:08:00,VALID,916.246,VALID,0,VALID,100,VALID,-0.101885,VALID,20.9136,VALID,97,VALID,0.360938,
2005-05-02, 01:09:01,VALID,916.224,VALID,0,VALID,100,VALID,-0.0849042,VALID,20.9134,VALID,313,VALID,0.632465,
2005-05-02, 01:10:01,VALID,916.219,VALID,0,VALID,100,VALID,-0.101885,VALID,20.9066,VALID,342,VALID,0.549893,
2005-05-02, 01:11:00,VALID,916.207,VALID,0,VALID,100,VALID,-0.101885,VALID,20.8714,VALID,357,VALID,0.157774,
2005-05-02, 01:12:00,VALID,916.171,VALID,0,VALID,100,VALID,-0.101885,VALID,20.8488,VALID,357,VALID,0,
2005-05-02, 01:13:01,VALID,916.156,VALID,0,VALID,100,VALID,-0.101885,VALID,20.8393,VALID,357,VALID,0,
2005-05-02, 01:14:00,VALID,916.146,VALID,0,VALID,100,VALID,-0.101885,VALID,20.8326,VALID,357,VALID,0,
2005-05-02, 01:15:00,VALID,916.117,VALID,0,VALID,100,VALID,-0.135847,VALID,20.8264,VALID,357,VALID,0,
2005-05-02, 01:16:00,VALID,916.094,VALID,0,VALID,100,VALID,-0.0679233,VALID,20.8097,VALID,357,VALID,0.218006,
2005-05-02, 01:17:00,VALID,916.07,VALID,0,VALID,100,VALID,-0.0679233,VALID,20.81,VALID,357,VALID,0.294398,
2005-05-02, 01:18:01,VALID,916.085,VALID,0,VALID,100,VALID,-0.101885,VALID,20.8455,VALID,357,VALID,0.280506,
2005-05-02, 01:19:00,VALID,916.079,VALID,0,VALID,100,VALID,-0.101885,VALID,20.8582,VALID,357,VALID,0.374132,
2005-05-02, 01:20:00,VALID,916.101,VALID,0,VALID,100,VALID,-0.0509425,VALID,20.838,VALID,359,VALID,0.618902,
2005-05-02, 01:21:00,VALID,916.103,VALID,0,VALID,100,VALID,0,VALID,20.831,VALID,141,VALID,0.492898,
2005-05-02, 01:22:00,VALID,916.098,VALID,0,VALID,100,VALID,0,VALID,20.8569,VALID,146,VALID,0.563834,
2005-05-02, 01:23:00,VALID,916.091,VALID,0,VALID,100,VALID,0,VALID,20.8798,VALID,160,VALID,0.740734,
2005-05-02, 01:24:00,VALID,916.097,VALID,0,VALID,100,VALID,0.0339617,VALID,20.8924,VALID,161,VALID,0.458079,
2005-05-02, 01:25:01,VALID,916.1,VALID,0,VALID,99.9941,VALID,0.0509425,VALID,20.8685,VALID,164,VALID,0.568026,
2005-05-02, 01:26:00,VALID,916.099,VALID,0,VALID,99.9494,VALID,0.0509425,VALID,20.8631,VALID,156,VALID,0.893229,
2005-05-02, 01:27:01,VALID,916.086,VALID,0,VALID,99.9519,VALID,0.0169808,VALID,20.8504,VALID,158,VALID,0.901811,
2005-05-02, 01:28:00,VALID,916.08,VALID,0,VALID,99.9819,VALID,0,VALID,20.8144,VALID,152,VALID,0.662388,
2005-05-02, 01:29:01,VALID,916.065,VALID,0,VALID,100,VALID,0.0339617,VALID,20.7952,VALID,144,VALID,0.749637,
2005-05-02, 01:30:00,VALID,916.027,VALID,0,VALID,100,VALID,0.0169808,VALID,20.7664,VALID,145,VALID,0.752486,
2005-05-02, 01:31:00,VALID,915.997,VALID,0,VALID,100,VALID,0,VALID,20.7269,VALID,145,VALID,0.94494,
2005-05-02, 01:32:00,VALID,915.981,VALID,0,VALID,100,VALID,0,VALID,20.7339,VALID,138,VALID,0.635901,
2005-05-02, 01:33:00,VALID,915.951,VALID,0,VALID,99.9977,VALID,0.0509425,VALID,20.7465,VALID,134,VALID,0.831676,
2005-05-02, 01:34:00,VALID,915.939,VALID,0,VALID,99.9367,VALID,0.0339617,VALID,20.7662,VALID,125,VALID,0.807478,
2005-05-02, 01:35:00,VALID,915.914,VALID,0,VALID,99.8731,VALID,0.0169808,VALID,20.7883,VALID,121,VALID,0.688033,
2005-05-02, 01:36:00,VALID,915.883,VALID,0,VALID,99.8349,VALID,0.0169808,VALID,20.8114,VALID,125,VALID,0.7742,
2005-05-02, 01:37:00,VALID,915.863,VALID,0,VALID,99.8451,VALID,0.0169808,VALID,20.841,VALID,134,VALID,0.463368,
2005-05-02, 01:38:00,VALID,915.822,VALID,0,VALID,99.7065,VALID,0.0169808,VALID,20.8343,VALID,147,VALID,0.97691,
2005-05-02, 01:39:00,VALID,915.816,VALID,0,VALID,99.5908,VALID,-0.0169808,VALID,20.8405,VALID,140,VALID,0.858285,
2005-05-02, 01:40:00,VALID,915.8,VALID,0,VALID,99.4738,VALID,0.0169808,VALID,20.8695,VALID,126,VALID,0.896391,
2005-05-02, 01:41:00,VALID,915.783,VALID,0,VALID,99.3734,VALID,0,VALID,20.8897,VALID,133,VALID,0.870164,
2005-05-02, 01:42:00,VALID,915.763,VALID,0,VALID,99.2564,VALID,0.0169808,VALID,20.8825,VALID,129,VALID,0.929492,
2005-05-02, 01:43:00,VALID,915.753,VALID,0,VALID,99.1267,VALID,0.0169808,VALID,20.8921,VALID,135,VALID,1.12552,
2005-05-02, 01:44:00,VALID,915.738,VALID,0,VALID,99.0173,VALID,0.0169808,VALID,20.9018,VALID,126,VALID,0.998828,
2005-05-02, 01:45:00,VALID,915.731,VALID,0,VALID,99.0822,VALID,0.0339617,VALID,20.9021,VALID,121,VALID,0.612805,
2005-05-02, 01:46:01,VALID,915.717,VALID,0,VALID,99.0923,VALID,0.0339617,VALID,20.8887,VALID,106,VALID,0.896949,
2005-05-02, 01:47:00,VALID,915.688,VALID,0,VALID,99.1152,VALID,0.0509425,VALID,20.8889,VALID,101,VALID,0.824306,
2005-05-02, 01:48:00,VALID,915.683,VALID,0,VALID,99.1089,VALID,0.0339617,VALID,20.8787,VALID,101,VALID,0.629724,
2005-05-02, 01:49:01,VALID,915.683,VALID,0,VALID,99.0287,VALID,0.0509425,VALID,20.8526,VALID,111,VALID,1.06813,
2005-05-02, 01:50:01,VALID,915.668,VALID,0,VALID,99.0961,VALID,0.0509425,VALID,20.8666,VALID,110,VALID,0.896181,
2005-05-02, 01:51:01,VALID,915.657,VALID,0,VALID,99.1368,VALID,-0.0849042,VALID,20.8523,VALID,99,VALID,1.05278,
2005-05-02, 01:52:01,VALID,915.642,VALID,0,VALID,99.2004,VALID,-0.101885,VALID,20.8458,VALID,84,VALID,0.803757,
2005-05-02, 01:53:00,VALID,915.626,VALID,0,VALID,99.339,VALID,-0.0679233,VALID,20.8388,VALID,82,VALID,0.711124,
2005-05-02, 01:54:01,VALID,915.627,VALID,0,VALID,99.2615,VALID,-0.0849042,VALID,20.8232,VALID,89,VALID,1.16332,
2005-05-02, 01:55:00,VALID,915.623,VALID,0,VALID,99.3479,VALID,-0.0849042,VALID,20.7939,VALID,68,VALID,1.23266,
2005-05-02, 01:56:01,VALID,915.606,VALID,0,VALID,99.4585,VALID,-0.118866,VALID,20.7879,VALID,54,VALID,1.1423,
2005-05-02, 01:57:01,VALID,915.603,VALID,0,VALID,99.5323,VALID,-0.101885,VALID,20.7844,VALID,74,VALID,0.771019,
2005-05-02, 01:58:01,VALID,915.597,VALID,0,VALID,99.5806,VALID,-0.101885,VALID,20.7718,VALID,89,VALID,0.635653,
2005-05-02, 01:59:01,VALID,915.594,VALID,0,VALID,99.7396,VALID,-0.101885,VALID,20.7556,VALID,77,VALID,0.47532,
2005-05-02, 02:00:00,VALID,915.592,VALID,0,VALID,99.7981,VALID,-0.101885,VALID,20.7265,VALID,73,VALID,0.732922,
2005-05-02, 02:01:01,VALID,915.594,VALID,0,VALID,99.854,VALID,-0.101885,VALID,20.694,VALID,72,VALID,0.518999,
2005-05-02, 02:02:01,VALID,915.61,VALID,0,VALID,99.9392,VALID,-0.0849042,VALID,20.6617,VALID,72,VALID,0.648247,
2005-05-02, 02:03:01,VALID,915.602,VALID,0,VALID,99.9903,VALID,-0.101885,VALID,20.6296,VALID,76,VALID,0.620313,
2005-05-02, 02:04:01,VALID,915.603,VALID,0,VALID,100,VALID,-0.101885,VALID,20.6137,VALID,84,VALID,0.575335,
2005-05-02, 02:05:01,VALID,915.601,VALID,0,VALID,100,VALID,-0.0849042,VALID,20.5874,VALID,98,VALID,0.68192,
2005-05-02, 02:06:01,VALID,915.592,VALID,0,VALID,100,VALID,0,VALID,20.5925,VALID,109,VALID,0.708274,
2005-05-02, 02:07:01,VALID,915.601,VALID,0,VALID,100,VALID,0,VALID,20.5958,VALID,63,VALID,0.43314,
2005-05-02, 02:08:01,VALID,915.595,VALID,0,VALID,100,VALID,0,VALID,20.5858,VALID,63,VALID,0.154726,
2005-05-02, 02:09:01,VALID,915.601,VALID,0,VALID,100,VALID,0.0169808,VALID,20.5699,VALID,63,VALID,0.0212054,
2005-05-02, 02:10:01,VALID,915.602,VALID,0,VALID,100,VALID,-0.0169808,VALID,20.5632,VALID,63,VALID,0,
2005-05-02, 02:11:01,VALID,915.613,VALID,0,VALID,100,VALID,0.0169808,VALID,20.5672,VALID,63,VALID,0.00093006,
2005-05-02, 02:12:01,VALID,915.603,VALID,0,VALID,100,VALID,0.0169808,VALID,20.567,VALID,63,VALID,0.127204,
2005-05-02, 02:13:00,VALID,915.605,VALID,0,VALID,100,VALID,0.0169808,VALID,20.5608,VALID,63,VALID,0.0687881,
2005-05-02, 02:14:01,VALID,915.596,VALID,0,VALID,100,VALID,0,VALID,20.5603,VALID,63,VALID,0,
2005-05-02, 02:15:00,VALID,915.593,VALID,0,VALID,100,VALID,0,VALID,20.5635,VALID,63,VALID,0,
2005-05-02, 02:16:01,VALID,915.587,VALID,0,VALID,100,VALID,-0.0169808,VALID,20.5541,VALID,63,VALID,0,
2005-05-02, 02:17:01,VALID,915.57,VALID,0,VALID,100,VALID,0,VALID,20.5511,VALID,63,VALID,0,
2005-05-02, 02:18:01,VALID,915.548,VALID,0,VALID,100,VALID,-0.0339617,VALID,20.5543,VALID,63,VALID,0,
2005-05-02, 02:19:01,VALID,915.533,VALID,0,VALID,100,VALID,-0.0169808,VALID,20.5608,VALID,63,VALID,0,
2005-05-02, 02:20:01,VALID,915.524,VALID,0,VALID,100,VALID,0,VALID,20.5481,VALID,63,VALID,0.00495427,
2005-05-02, 02:21:01,VALID,915.504,VALID,0,VALID,100,VALID,0,VALID,20.5409,VALID,63,VALID,0.155903,
2005-05-02, 02:22:01,VALID,915.499,VALID,0,VALID,100,VALID,0.0169808,VALID,20.5242,VALID,63,VALID,0,
2005-05-02, 02:23:01,VALID,915.484,VALID,0,VALID,100,VALID,0,VALID,20.5446,VALID,63,VALID,0.00106534,
2005-05-02, 02:24:01,VALID,915.456,VALID,0,VALID,100,VALID,-0.0169808,VALID,20.5478,VALID,63,VALID,0,
2005-05-02, 02:25:01,VALID,915.444,VALID,0,VALID,100,VALID,0,VALID,20.5449,VALID,63,VALID,0.300223,
2005-05-02, 02:26:01,VALID,915.45,VALID,0,VALID,100,VALID,0,VALID,20.5053,VALID,63,VALID,0.338415,
2005-05-02, 02:27:01,VALID,915.439,VALID,0,VALID,100,VALID,0.0509425,VALID,20.4924,VALID,63,VALID,0.145232,
2005-05-02, 02:28:01,VALID,915.43,VALID,0,VALID,100,VALID,-0.0169808,VALID,20.4792,VALID,63,VALID,0.5125,
2005-05-02, 02:29:01,VALID,915.43,VALID,0,VALID,100,VALID,-0.0169808,VALID,20.473,VALID,63,VALID,0.491122,
2005-05-02, 02:30:01,VALID,915.432,VALID,0,VALID,100,VALID,0,VALID,20.4703,VALID,63,VALID,0.22237,
2005-05-02, 02:31:01,VALID,915.424,VALID,0,VALID,100,VALID,-0.0169808,VALID,20.4798,VALID,63,VALID,0.104539,
2005-05-02, 02:32:01,VALID,915.41,VALID,0,VALID,100,VALID,0.0169808,VALID,20.4733,VALID,62,VALID,0.225694,
2005-05-02, 02:33:01,VALID,915.371,VALID,0,VALID,100,VALID,0.0169808,VALID,20.483,VALID,62,VALID,0.158794,
2005-05-02, 02:34:01,VALID,915.347,VALID,0,VALID,100,VALID,-0.0169808,VALID,20.4703,VALID,63,VALID,0,
2005-05-02, 02:35:01,VALID,915.334,VALID,0,VALID,100,VALID,-0.0169808,VALID,20.4542,VALID,63,VALID,0.0377604,
2005-05-02, 02:36:01,VALID,915.289,VALID,0,VALID,100,VALID,-0.0169808,VALID,20.4512,VALID,63,VALID,0.0207741,
2005-05-02, 02:37:00,VALID,915.258,VALID,0,VALID,100,VALID,0.0169808,VALID,20.4442,VALID,62,VALID,0.0117188,
2005-05-02, 02:38:00,VALID,915.218,VALID,0,VALID,100,VALID,0.0169808,VALID,20.4408,VALID,63,VALID,0,
2005-05-02, 02:39:00,VALID,915.179,VALID,0,VALID,100,VALID,0.0169808,VALID,20.434,VALID,63,VALID,0.168155,
2005-05-02, 02:40:00,VALID,915.143,VALID,0,VALID,100,VALID,0.0339617,VALID,20.445,VALID,63,VALID,0.499822,
2005-05-02, 02:41:00,VALID,915.126,VALID,0,VALID,100,VALID,0,VALID,20.4313,VALID,64,VALID,0.59375,
2005-05-02, 02:42:00,VALID,915.104,VALID,0,VALID,100,VALID,0.0169808,VALID,20.4147,VALID,67,VALID,0.416667,
2005-05-02, 02:43:00,VALID,915.085,VALID,0,VALID,100,VALID,-0.0169808,VALID,20.4254,VALID,67,VALID,0,
2005-05-02, 02:44:00,VALID,915.048,VALID,0,VALID,100,VALID,-0.0169808,VALID,20.4087,VALID,67,VALID,0.0716146,
2005-05-02, 02:45:00,VALID,915.01,VALID,0,VALID,100,VALID,0,VALID,20.3958,VALID,67,VALID,0.157965,
2005-05-02, 02:46:00,VALID,914.971,VALID,0,VALID,100,VALID,-0.0169808,VALID,20.357,VALID,67,VALID,0.046875,
2005-05-02, 02:47:00,VALID,914.927,VALID,0,VALID,100,VALID,0,VALID,20.3247,VALID,67,VALID,0.162016,
2005-05-02, 02:48:00,VALID,914.905,VALID,0,VALID,100,VALID,0.0169808,VALID,20.2992,VALID,67,VALID,0.239757,
2005-05-02, 02:49:00,VALID,914.87,VALID,0,VALID,100,VALID,0,VALID,20.2703,VALID,67,VALID,0.180859,
2005-05-02, 02:50:00,VALID,914.861,VALID,0,VALID,100,VALID,-0.0509425,VALID,20.2542,VALID,66,VALID,0.367188,
2005-05-02, 02:51:00,VALID,914.827,VALID,0,VALID,100,VALID,-0.0849042,VALID,20.2552,VALID,57,VALID,0.693201,
2005-05-02, 02:52:00,VALID,914.81,VALID,0,VALID,100,VALID,-0.0849042,VALID,20.2229,VALID,53,VALID,0.646949,
2005-05-02, 02:53:00,VALID,914.793,VALID,0,VALID,100,VALID,-0.0679233,VALID,20.1906,VALID,53,VALID,0.485197,
2005-05-02, 02:54:00,VALID,914.778,VALID,0,VALID,100,VALID,-0.0339617,VALID,20.161,VALID,53,VALID,0.497337,
2005-05-02, 02:55:00,VALID,914.785,VALID,0,VALID,100,VALID,-0.0509425,VALID,20.161,VALID,53,VALID,0.570313,
2005-05-02, 02:56:00,VALID,914.787,VALID,0,VALID,100,VALID,-0.0679233,VALID,20.1578,VALID,53,VALID,0.320685,
2005-05-02, 02:57:00,VALID,914.778,VALID,0,VALID,100,VALID,-0.0849042,VALID,20.2097,VALID,53,VALID,0.286776,
2005-05-02, 02:58:00,VALID,914.778,VALID,0,VALID,100,VALID,-0.0679233,VALID,20.2482,VALID,53,VALID,0.43657,
2005-05-02, 02:59:00,VALID,914.771,VALID,0,VALID,100,VALID,-0.101885,VALID,20.2873,VALID,53,VALID,0.376488,
2005-05-02, 03:00:00,VALID,914.782,VALID,0,VALID,100,VALID,-0.101885,VALID,20.2838,VALID,53,VALID,0.0416101,
2005-05-02, 03:01:00,VALID,914.779,VALID,0,VALID,100,VALID,-0.0509425,VALID,20.2716,VALID,53,VALID,0.264323,
2005-05-02, 03:02:00,VALID,914.768,VALID,0,VALID,100,VALID,-0.0679233,VALID,20.2547,VALID,53,VALID,0.492733,
2005-05-02, 03:03:00,VALID,914.759,VALID,0,VALID,100,VALID,-0.0679233,VALID,20.2776,VALID,68,VALID,0.551781,
2005-05-02, 03:04:00,VALID,914.773,VALID,0,VALID,100,VALID,-0.101885,VALID,20.3032,VALID,104,VALID,0.652058,
2005-05-02, 03:05:00,VALID,914.787,VALID,0,VALID,100,VALID,0,VALID,20.3094,VALID,117,VALID,0.57706,
2005-05-02, 03:06:00,VALID,914.787,VALID,0,VALID,100,VALID,0.0339617,VALID,20.3175,VALID,117,VALID,0.488104,
2005-05-02, 03:07:00,VALID,914.767,VALID,0,VALID,100,VALID,0.0339617,VALID,20.321,VALID,118,VALID,0.589571,
2005-05-02, 03:08:00,VALID,914.748,VALID,0,VALID,100,VALID,0.0339617,VALID,20.3277,VALID,123,VALID,0.513263,
2005-05-02, 03:09:00,VALID,914.735,VALID,0,VALID,100,VALID,0.0339617,VALID,20.3215,VALID,123,VALID,0.449491,
2005-05-02, 03:10:00,VALID,914.74,VALID,0,VALID,100,VALID,0.0679233,VALID,20.3019,VALID,123,VALID,0.377804,
2005-05-02, 03:11:00,VALID,914.739,VALID,0,VALID,100,VALID,0.0169808,VALID,20.2887,VALID,123,VALID,0.381214,
2005-05-02, 03:12:00,VALID,914.757,VALID,0,VALID,100,VALID,0.0339617,VALID,20.2954,VALID,123,VALID,0.441692,
2005-05-02, 03:13:00,VALID,914.786,VALID,0,VALID,100,VALID,0.0169808,VALID,20.2902,VALID,138,VALID,0.668359,
2005-05-02, 03:14:00,VALID,914.814,VALID,0,VALID,100,VALID,0.0169808,VALID,20.2634,VALID,146,VALID,0.668786,
2005-05-02, 03:15:00,VALID,914.842,VALID,0,VALID,100,VALID,0.0339617,VALID,20.247,VALID,145,VALID,0.752858,
2005-05-02, 03:16:00,VALID,914.844,VALID,0,VALID,100,VALID,0.0169808,VALID,20.2502,VALID,141,VALID,0.630526,
2005-05-02, 03:17:00,VALID,914.844,VALID,0,VALID,100,VALID,0.0169808,VALID,20.2532,VALID,139,VALID,0.500178,
2005-05-02, 03:18:00,VALID,914.856,VALID,0,VALID,100,VALID,0.0169808,VALID,20.2472,VALID,138,VALID,0.591146,
2005-05-02, 03:19:00,VALID,914.838,VALID,0,VALID,100,VALID,0.0339617,VALID,20.2607,VALID,138,VALID,0.686133,
2005-05-02, 03:20:00,VALID,914.824,VALID,0,VALID,100,VALID,0,VALID,20.2537,VALID,138,VALID,0.575076,
2005-05-02, 03:21:00,VALID,914.827,VALID,0,VALID,100,VALID,-0.0339617,VALID,20.2515,VALID,138,VALID,0.64881,
2005-05-02, 03:22:00,VALID,914.843,VALID,0,VALID,100,VALID,-0.0849042,VALID,20.2679,VALID,134,VALID,0.941692,
2005-05-02, 03:23:00,VALID,914.846,VALID,0,VALID,100,VALID,-0.0679233,VALID,20.2805,VALID,124,VALID,0.900306,
2005-05-02, 03:24:00,VALID,914.854,VALID,0,VALID,100,VALID,-0.0679233,VALID,20.3039,VALID,123,VALID,0.771577,
2005-05-02, 03:25:00,VALID,914.862,VALID,0,VALID,100,VALID,-0.101885,VALID,20.3166,VALID,105,VALID,1.2522,
2005-05-02, 03:26:00,VALID,914.863,VALID,0,VALID,100,VALID,-0.0679233,VALID,20.3362,VALID,94,VALID,1.18787,
2005-05-02, 03:27:00,VALID,914.858,VALID,0,VALID,100,VALID,-0.0849042,VALID,20.3362,VALID,86,VALID,1.16243,
2005-05-02, 03:28:00,VALID,914.855,VALID,0,VALID,100,VALID,-0.0849042,VALID,20.3325,VALID,91,VALID,1.07949,
2005-05-02, 03:29:00,VALID,914.861,VALID,0,VALID,100,VALID,-0.0509425,VALID,20.323,VALID,96,VALID,0.854167,
2005-05-02, 03:30:00,VALID,914.855,VALID,0,VALID,100,VALID,-0.0849042,VALID,20.2843,VALID,93,VALID,1.03925,
2005-05-02, 03:31:00,VALID,914.864,VALID,0,VALID,100,VALID,-0.0509425,VALID,20.2458,VALID,91,VALID,1.00457,
2005-05-02, 03:32:00,VALID,914.876,VALID,0,VALID,100,VALID,-0.0679233,VALID,20.1998,VALID,84,VALID,1.19271,
2005-05-02, 03:33:00,VALID,914.867,VALID,0,VALID,100,VALID,-0.101885,VALID,20.1876,VALID,92,VALID,1.15997,
2005-05-02, 03:34:00,VALID,914.863,VALID,0,VALID,100,VALID,-0.0679233,VALID,20.1576,VALID,88,VALID,0.541853,
2005-05-02, 03:35:00,VALID,914.872,VALID,0,VALID,100,VALID,-0.0509425,VALID,20.135,VALID,88,VALID,0.658736,
2005-05-02, 03:36:00,VALID,914.881,VALID,0,VALID,100,VALID,0.0679233,VALID,20.1213,VALID,88,VALID,0.731712,
2005-05-02, 03:37:00,VALID,914.902,VALID,0,VALID,100,VALID,0.0509425,VALID,20.0949,VALID,100,VALID,0.629883,
2005-05-02, 03:38:00,VALID,914.917,VALID,0,VALID,100,VALID,0.0339617,VALID,20.0954,VALID,111,VALID,0.659979,
2005-05-02, 03:39:00,VALID,914.933,VALID,0,VALID,100,VALID,0.101885,VALID,20.0855,VALID,118,VALID,0.270349,